Time,TemperatureF,DewpointF,PressureIn,WindDirection,WindDirectionDegrees,WindSpeedMPH,WindSpeedGustMPH,Humidity,HourlyPrecipIn,Conditions,Clouds,dailyrainin,SoftwareType,DateUTC
2015-01-30 00:22:00,32.0,29.0,30.22,NW,309,4.0,9.0,89,0.00,,,0.01,,2015-01-30 05:22:00,
2015-01-30 00:54:00,32.0,29.0,30.22,WNW,290,5.0,11.0,87,0.00,,,0.01,,2015-01-30 05:54:00,
2015-01-30 01:22:00,33.0,29.0,30.23,WNW,286,2.0,9.0,84,0.00,,,0.01,,2015-01-30 06:22:00,
2015-01-30 01:52:00,32.0,28.0,30.23,NNW,335,3.0,9.0,84,0.00,,,0.01,,2015-01-30 06:52:00,
2015-01-30 02:22:00,33.0,29.0,30.23,NW,317,2.0,7.0,84,0.00,,,0.01,,2015-01-30 07:22:00,
2015-01-30 02:53:00,32.0,28.0,30.24,NW,306,6.0,10.0,84,0.00,,,0.01,,2015-01-30 07:53:00,
2015-01-30 03:22:00,32.0,27.0,30.25,NNW,330,5.0,14.0,82,0.00,,,0.01,,2015-01-30 08:22:00,
2015-01-30 03:53:00,32.0,26.0,30.26,WNW,289,6.0,11.0,79,0.00,,,0.01,,2015-01-30 08:53:00,
2015-01-30 04:12:00,32.0,26.0,30.26,WNW,288,5.0,14.0,79,0.00,,,0.01,,2015-01-30 09:12:00,
2015-01-30 04:22:00,32.0,27.0,30.26,West,268,5.0,14.0,80,0.00,,,0.01,,2015-01-30 09:22:00,
2015-01-30 04:54:00,32.0,27.0,30.27,WNW,288,6.0,14.0,80,0.00,,,0.01,,2015-01-30 09:54:00,
2015-01-30 05:23:00,32.0,27.0,30.28,NNW,337,3.0,14.0,81,0.00,,,0.01,,2015-01-30 10:23:00,
2015-01-30 05:54:00,32.0,27.0,30.29,NW,305,4.0,12.0,81,0.00,,,0.01,,2015-01-30 10:54:00,
2015-01-30 06:13:00,31.0,26.0,30.30,WNW,294,4.0,19.0,83,0.00,,,0.01,,2015-01-30 11:13:00,
2015-01-30 06:23:00,29.0,27.0,30.31,NW,326,4.0,7.0,91,0.00,,,0.01,,2015-01-30 11:23:00,
2015-01-30 06:53:00,29.0,26.0,30.34,NNW,347,4.0,10.0,87,0.00,,,0.01,,2015-01-30 11:53:00,
2015-01-30 07:22:00,28.0,23.0,30.36,NNW,340,4.0,13.0,80,0.00,,,0.01,,2015-01-30 12:22:00,
2015-01-30 07:53:00,27.0,20.0,30.38,NNW,345,2.0,10.0,74,0.00,,,0.01,,2015-01-30 12:53:00,
2015-01-30 08:12:00,27.0,20.0,30.38,NNW,333,2.0,12.0,74,0.00,,,0.01,,2015-01-30 13:12:00,
2015-01-30 08:22:00,27.0,20.0,30.40,NNW,337,1.0,4.0,76,0.00,,,0.01,,2015-01-30 13:22:00,
2015-01-30 08:52:00,26.0,16.0,30.42,NW,310,5.0,13.0,66,0.00,,,0.01,,2015-01-30 13:52:00,
2015-01-30 09:22:00,26.0,18.0,30.44,NNW,342,3.0,10.0,71,0.00,,,0.01,,2015-01-30 14:22:00,
2015-01-30 09:52:00,26.0,18.0,30.45,NNW,333,2.0,18.0,70,0.00,,,0.01,,2015-01-30 14:52:00,
2015-01-30 10:12:00,26.0,17.0,30.45,NW,314,4.0,11.0,68,0.00,,,0.01,,2015-01-30 15:12:00,
2015-01-30 10:23:00,26.0,16.0,30.46,NNW,337,6.0,19.0,64,0.00,,,0.01,,2015-01-30 15:23:00,
2015-01-30 10:54:00,25.0,19.0,30.47,NNW,330,4.0,11.0,77,0.00,,,0.00,,2015-01-30 15:54:00,
2015-01-30 11:24:00,25.0,17.0,30.48,North,9,4.0,9.0,71,0.00,,,0.00,,2015-01-30 16:24:00,
2015-01-30 11:55:00,25.0,15.0,30.49,NNW,340,5.0,11.0,66,0.00,,,0.00,,2015-01-30 16:55:00,
2015-01-30 12:23:00,26.0,15.0,30.49,NNW,336,3.0,9.0,63,0.00,,,0.00,,2015-01-30 17:23:00,